Nantucket, MA

12:36 AM EDT on March 29, 2017 (GMT -0400)
Nantucket Memorial

Weather History for KACK - January, 2013

Change the Weather History Date:

Sunday, January 6, 2013

  Actual Average Record
Temperature  
Mean Temperature 36 °F -  
Max Temperature 44 °F 36 °F 55 °F (2007)
Min Temperature 27 °F 20 °F 7 °F (1959)
Degree Days  
Heating Degree Days 30    
Moisture  
Dew Point 34 °F    
Average Humidity 87    
Maximum Humidity 96    
Minimum Humidity 76    
Precipitation  
Precipitation 0.02 in - - ()
Sea Level Pressure  
Sea Level Pressure 30.06 in    
Wind  
Wind Speed 6 mph (West)    
Max Wind Speed 17 mph    
Max Gust Speed 23 mph    
Visibility 9 miles    
Events Rain    
Averages and records for this station are not official NWS values.
T = Trace of Precipitation, MM = Missing Value Source: NWS Daily Summary

Daily Weather History Graph

Daily Weather History Graph

Search for Another Location

Airport or City:

Trip Planner

Search our weather history database for the weather conditions in past years. The results will help you decide how hot, cold, wet, or windy it might be!

Date:

Astronomy

Jan. 06, 2013 Rise Set
Actual Time 7:05 AM EST 4:26 PM EST
Civil Twilight 6:35 AM EST 4:57 PM EST
Nautical Twilight 6:00 AM EST 5:32 PM EST
Astronomical Twilight 5:27 AM EST 6:05 PM EST
Moon 1:15 AM EST (1/6) 11:53 AM EST (1/6)
Length of Visible Light 10h 22m
Length of Day
9h 20m
Waning Crescent, 33% of the Moon is Illuminated
Jan 6
Waning Crescent
Jan 11
New
Jan 18
First Quarter
Jan 26
Full
Feb 3
Last Quarter

Hourly Weather History & Observations

Time (EST) Temp. Windchill Dew Point Humidity Pressure Visibility Wind Dir Wind Speed Gust Speed Precip Events Conditions
12:53 AM 27.0 °F - 23.0 °F 85% 30.21 in 10.0 mi Calm Calm - N/A   Clear
1:53 AM 28.9 °F - 26.1 °F 89% 30.21 in 10.0 mi Calm Calm - N/A   Clear
2:53 AM 30.9 °F - 28.0 °F 89% 30.22 in 10.0 mi Calm Calm - N/A   Overcast
3:53 AM 33.1 °F - 28.9 °F 85% 30.17 in 10.0 mi Calm Calm - N/A   Overcast
4:53 AM 35.1 °F 32.2 °F 30.9 °F 85% 30.14 in 10.0 mi ESE 3.5 mph - N/A   Overcast
5:53 AM 36.0 °F 29.6 °F 32.0 °F 86% 30.11 in 10.0 mi South 8.1 mph - 0.00 in Rain Light Rain
6:03 AM 37.4 °F 30.8 °F 33.8 °F 87% 30.12 in 10.0 mi South 9.2 mph - 0.00 in Rain Light Rain
6:53 AM 39.0 °F 31.4 °F 36.0 °F 89% 30.11 in 10.0 mi South 12.7 mph - 0.01 in Rain Light Rain
7:53 AM 36.0 °F 29.6 °F 34.0 °F 93% 30.11 in 10.0 mi West 8.1 mph - 0.01 in Rain Light Rain
8:13 AM 37.4 °F 32.1 °F 35.6 °F 93% 30.10 in 8.0 mi West 6.9 mph - 0.00 in Rain Light Rain
8:53 AM 37.9 °F 32.1 °F 36.0 °F 93% 30.11 in 7.0 mi West 8.1 mph - 0.00 in   Overcast
9:29 AM 39.2 °F 32.5 °F 37.4 °F 93% 30.10 in 8.0 mi WSW 10.4 mph - N/A   Overcast
9:53 AM 39.9 °F 32.9 °F 37.0 °F 89% 30.10 in 9.0 mi WSW 11.5 mph - N/A   Overcast
10:53 AM 42.1 °F 34.9 °F 37.0 °F 82% 30.06 in 10.0 mi WSW 13.8 mph - N/A   Overcast
11:53 AM 41.0 °F 34.7 °F 36.0 °F 82% 30.02 in 10.0 mi West 10.4 mph - N/A   Overcast
12:32 PM 41.0 °F 34.3 °F 35.6 °F 81% 30.00 in 10.0 mi West 11.5 mph - N/A   Overcast
12:53 PM 41.0 °F 33.5 °F 36.0 °F 82% 29.99 in 10.0 mi West 13.8 mph - N/A   Overcast
1:24 PM 42.8 °F 35.4 °F 37.4 °F 81% 29.99 in 10.0 mi West 15.0 mph - N/A   Mostly Cloudy
1:53 PM 44.1 °F 36.5 °F 37.0 °F 76% 29.98 in 10.0 mi West 17.3 mph 23.0 mph N/A   Clear
2:53 PM 43.0 °F 36.8 °F 37.0 °F 80% 29.98 in 10.0 mi West 11.5 mph 19.6 mph N/A   Clear
3:53 PM 41.0 °F 34.7 °F 36.0 °F 82% 29.96 in 10.0 mi West 10.4 mph - N/A   Clear
4:53 PM 39.0 °F 33.4 °F 35.1 °F 86% 29.96 in 10.0 mi West 8.1 mph - N/A   Clear
5:53 PM 37.0 °F 32.4 °F 34.0 °F 89% 29.98 in 9.0 mi WNW 5.8 mph - N/A   Clear
6:53 PM 37.0 °F 31.6 °F 35.1 °F 93% 29.98 in 10.0 mi WNW 6.9 mph - N/A   Clear
7:53 PM 35.1 °F 29.3 °F 34.0 °F 96% 29.98 in 8.0 mi West 6.9 mph - N/A   Clear
8:53 PM 35.1 °F 29.3 °F 34.0 °F 96% 29.98 in 8.0 mi West 6.9 mph - N/A   Clear
9:53 PM 35.1 °F 28.6 °F 33.1 °F 92% 29.99 in 8.0 mi WNW 8.1 mph - N/A   Clear
10:53 PM 34.0 °F 28.0 °F 32.0 °F 92% 29.99 in 7.0 mi WNW 6.9 mph - N/A   Clear
11:53 PM 35.1 °F 32.2 °F 32.0 °F 89% 29.98 in 7.0 mi West 3.5 mph - N/A   Clear